Погода Аскино

Погода Аскино : погода сейчас, прогноз погоды и архив. Всё, что Вы хотите узнать о погоде Аскино!

Поиск расширенной информации на нашем сайте:

Другие новости

Новости СМИ2

Главная страница сайта

Новости сайта

03.07.2017

Напоминаем, что на нашем специализированном сайте Метеоцентр.Азия вы можете получить высокодетализированные автоматические прогнозы погоды по пунктам России, СНГ и мира в авиационном формате (включающие направление и скорость ветра, видимость, явления погоды, количество и форму облачности, нижнюю и верхнюю границу облачности).


Погода Аскино - сегодня

Время (UTC), дата Ветер
(°,м/с) 
Видим.   Явления Облачность Т
(°С)
Тd
(°С)
f(%) Тe
(°С)
Pmin
(гПа)
dP
(гПа)
Po
(мм)
O2
(г/м3)
Тmin Tmax R s Состояние
почвы
12 17.05.18 280 (З) 20000 м    6/6 1000 м 
[Cu med, cong]
+17.7 +2.6 36 +18  1015.6  -1  744  281           
18 17.05.18 220 (ЮЗ) н/о    3/0 верхняя 
[Ci ing]
+11.9 +1.2 48 +12  1015.7  0.3  743  287           
21 17.05.18 190 (Ю) н/о    6/0 верхняя 
[Ci ing]
+8.6 +1.1 59 +9  1015.4  -0.5  743  290           
00 18.05.18 150 (ЮВ) 20000 м    3/0 верхняя 
[Ci ing]
+6.3 +0.8 68 +7  1015.2  -0.4  743  292           
03 18.05.18 160 (Ю) 20000 м    6/0 верхняя 
[Ci ing]
+12.7 +2.8 51 +14  1014.7  743  285  +6.2        сухая 
06 18.05.18 300 (СЗ) 20000 м    8/3 1500 м верхняя 
[Cu med, cong|Ci sp]
+20.8 +3.4 32 +21  1013.4  -0.6  742  277           
09 18.05.18 240 (ЮЗ) 20000 м    9/8 1500 м верхняя 
[Cu med, cong|Ci sp]
+22.9 +0.9 23 +23  1013.4  0.2  742  276           
12 18.05.18 080 (В) 20000 м    9/8 1500 м верхняя 
[Cu med, cong|Ci sp]
+22.9 +2.4 26 +23  1013.3  0.1  742  276           
18 18.05.18 080 (В) н/о    9/0 средняя 
[Ac und]
+16.7 +3.2 40 +17  1014.3  0.6  743  281           
21 18.05.18 110 (В) н/о    ясно 
+14.3 +0.5 39 +14  1014.5  743  284           
00 19.05.18 090 (В) 10 км    8/0 средняя, верхняя 
[Ac und|Ci sp]
+11.2 +1.6 52 +10  1014.3  -0.4  742  287           
03 19.05.18 180 (Ю) 5{10}  20000 м    9/0 средняя, верхняя 
[Ac und|Ci sp]
+16.1 +9 63 +16  1013.9  0.1  742  281  +11        сухая 
06 19.05.18 190 (Ю) 7{13}  20000 м    9/3 1500 м средняя, верхняя 
[Cu hum|Ac trans|Ci sp]
+20 +11.3 57 +23  1013.2  -0.4  742  276           
09 19.05.18 170 (Ю) 6{13}  20000 м    10/8 1500 м средняя 
[Cu med, cong|Ac cuf]
+19.4 +12 62 +24  1013  -0.2  742  277           
12 19.05.18 180 (Ю) 7{12}  20000 м    9/8 1500 м средняя 
[Cu med, cong|Ac cuf]
+20.9 +12 57 +25  1011.9  -1  741  275           
18 19.05.18 160 (Ю) 5{19}  н/о  {гроза, ливн. осадки}  9/8 600 м кучево-дожд., средняя 
[Cb calv|Ac cuf]
+15.3 +11.3 77 +18  1010.5  -0.7  740  280           
21 19.05.18 160 (Ю) н/о    9/6 1000 м средняя 
[Cu med, cong|Ac trans]
+14.3 +11.5 83 +19  1010  -0.6  739  281           
00 20.05.18 190 (Ю) 20000 м    8/0 средняя, верхняя 
[Ac und|Ci sp]
+14.7 +10.2 74 +17  1010.4  0.5  740  281           
03 20.05.18 180 (Ю) 20000 м    3/3 1500 м верхняя 
[Cu med, cong|Ci]
+17.4 +11.1 66 +21  1009.4  -0.8  739  278  +13.8      влажная 
06 20.05.18 200 (Ю) 6{16}  20000 м  гроза без осадков  9/3 600 м средняя 
[Ac cuf]
+17.6 +12.6 72 +22  1009.6  0.2  739  277           
09 20.05.18 230 (ЮЗ) 9{17}  20000 м  {гроза}  8/6 1000 м верхняя 
[Cu med, cong|Ci ing]
+23.3 +9 40 +24  1007.9  -1.2  738  273           
15 20.05.18 260 (З) 8{14}  20000 м  {ливн. осадки}  9/8 600 м кучево-дожд., средняя 
[Cb calv|Ac cuf]
+20.8 +8.6 45 +21  1009.8  0.7  740  275    +23.3     
18 20.05.18 290 (З) 4{13}  н/о  {ливн. осадки}  10/8 1000 м средняя 
[Cu med, cong|Ac cuf]
+15.3 +12.7 84 +20  1012.8  2.5  741  280           
21 20.05.18 320 (СЗ) н/о    10/8 1000 м средняя 
[Cu med, cong|Ac und]
+13.1 +10.8 86 +14  1014.7  1.6  743  283           
00 21.05.18 330 (СЗ) 20000 м  {ливн. осадки}  10/8 1000 м средняя 
[Cu med, cong|Ac und]
+9.5 +8.2 92 +9  1017.5  2.4  744  288           
Время (UTC), дата Ветер
(°,м/с) 
Видим.   Явления Облачность Т
(°С)
Тd
(°С)
f(%) Тe
(°С)
Pmin
(гПа)
dP
(гПа)
Po
(мм)
O2
(г/м3)
Тmin Tmax R s Состояние
почвы

Для получения пояснительной информации подведите курсор к названию столбца.

ПОГОДА Аскино - архив

Всё, что Вы хотите узнать о погоде Аскино - удобно и подробно!

Выберите нужную дату (начиная с 1 января 2015* года) и нажмите кнопку "Найти".
Будут отображены архивные сводки погоды по пункту Аскино, начиная с указанной даты.


Отображать данные в формате CSV (для использования в таблицах Excel)


Внимание! Наш архив погоды предназначен исключительно для личного некоммерческого использования в познавательных целях. Если Вам необходимы официальные справки о состоянии погоды (для производственных, юридических, коммерческих и т.п. целей), обращайтесь в органы Росгидромета.

*Примечание: данная дата относится к архиву по метеостанциям СССР (Россия, СНГ, Балтия).
Архив по метеостанциям Зарубежной Европы и Азии (кроме Китая) хранится 10 дней, по другим регионам земного шара (Китай, Африка, Америка, Австралия, Океания) - 1 день.

Аскино - район местоположения метеостанции


Название, широта, долгота, высота метеостанции:
Аскино 56.1°ш. 56.6°д. 207 м над ур. моря [Российская Федерация]

Дополнительная информация

В oтличие oт бoльшинства пoгoдных сайтoв мы публикуем пoдрoбную метеoинфoрмацию в детальнoм прoфессиoнальнoм фoрмате.

Характеристики температуры и влажнoсти вoздуха измеряются на высoте 2 м в тени вдали oт зданий и деревьев.
Скoрoсть ветра измеряется на высoте 10 м (на урoвне рoста челoвека скoрoсть ветра ниже в 1.5-2 раза). Если метеoстанция нахoдится в гoрoде или в лесу, тo скoрoсть ветра занижена на 2-4 м/с пo сравнению с oткрытым местoм. Скoрoсть ветра над акватoриями крупных рек и oзёр, а также на вершинах хoлмoв на 2-5 м/с выше, чем в oбычных услoвиях.
Атмoсфернoе давление в разных тoчках местнoсти мoжет значительнo oтличаться oт давления на метеoстанции, в зависимoсти oт услoвий рельефа (при пoдъёме на 10 м давление пoнижается примернo на 1 мм рт.ст.).